Location: Grand Rapids
(42.9630°N, 85.6680°W)
Time: 02:08:22
(UTC-04:00)

A-11 Canister half - Pass Details

Date: 31 May 2024
Orbit: 1524 x 1684 km, 47.3° (Epoch: 21 June)

Event Time Altitude Azimuth Distance (km) Brightness Sun altitude
Rises 23:52:14 0° 280° (W) 4,692 12.1 -20.4°
Reaches altitude 10° 23:55:17 10° 283° (WNW) 3,722 11.5 -20.7°
Maximum altitude 00:04:42 70° 6° (N) 1,661 9.3 -21.4°
Drops below altitude 10° 00:14:26 10° 90° (E) 3,838 10.9 -22.1°
Sets 00:17:38 0° 93° (E) 4,845 11.4 -22.3°
